Weather History for Farnborough, United Kingdom

Change the Weather History Date:

Wednesday, October 10, 2012

  Actual Average (EGLL) Record (EGLL)
Temperature  
Mean Temperature 53 °F -  
Max Temperature 59 °F 60 °F 71 °F (2005)
Min Temperature 47 °F 48 °F 44 °F (2000)
Degree Days  
Heating Degree Days 12    
Growing Degree Days 3 (Base 50)    
Moisture  
Dew Point 45 °F    
Average Humidity 71    
Maximum Humidity 87    
Minimum Humidity 49    
Precipitation  
Precipitation 0.00 in - - ()
Sea Level Pressure  
Sea Level Pressure 29.97 in    
Wind  
Wind Speed 7 mph ()    
Max Wind Speed 58 mph    
Max Gust Speed -    
Visibility 8.2 miles    
Events      
Averages and records for this station are not official NWS values.
T = Trace of Precipitation, MM = Missing Value Source: Averaged Metar Reports

Daily Weather History Graph

Daily Weather History Graph

Search for Another Location

Airport:

Trip Planner

Search our weather history database for the weather conditions in past years. The results will help you decide how hot, cold, wet, or windy it might be!

Date:

Astronomy

Oct. 10, 2012 Rise Set
Actual Time 7:18 AM BST 6:20 PM BST
Civil Twilight 6:45 AM BST 6:53 PM BST
Nautical Twilight 6:07 AM BST 7:31 PM BST
Astronomical Twilight 5:28 AM BST 8:10 PM BST
Moon 1:04 AM BST (10/10) 3:45 PM BST (10/10)
Length of Visible Light 12h 07m
Length of Day
11h 01m
Waning Crescent, 29% of the Moon is Illuminated
Oct 10
Waning Crescent
Oct 15
New
Oct 22
First Quarter
Oct 29
Full
Nov 7
Last Quarter

Hourly Weather History & Observations

Time (BST) Temp. Dew Point Humidity Pressure Visibility Wind Dir Wind Speed Gust Speed Precip Events Conditions
12:50 AM 49 °F 45 °F 82% 30.01 in 15 mi ENE 4.6 mph - -   Partly Cloudy
3:50 AM 49 °F 44 °F 79% 30.00 in 16 mi East 4.6 mph - -   Overcast
6:50 AM 48 °F 44 °F 80% 29.99 in 15 mi East 4.6 mph - -   Overcast
6:50 AM 48.2 °F 44.6 °F 87% 29.98 in 6.2 mi ENE 5.8 mph - N/A   Mostly Cloudy
7:20 AM 48.2 °F 42.8 °F 82% 29.98 in 6.2 mi East 5.8 mph - N/A   Mostly Cloudy
7:50 AM 48.2 °F 44.6 °F 87% 30.01 in 6.2 mi East 4.6 mph - N/A   Mostly Cloudy
8:20 AM 48.2 °F 42.8 °F 82% 30.01 in 6.2 mi NE 8.1 mph - N/A   Mostly Cloudy
8:50 AM 48.2 °F 42.8 °F 82% 30.01 in 6.2 mi NE 4.6 mph - N/A   Mostly Cloudy
9:20 AM 48.2 °F 44.6 °F 87% 30.01 in 6.2 mi ENE 4.6 mph - N/A   Mostly Cloudy
9:50 AM 50 °F 44 °F 74% 30.01 in 17 mi ENE 3.5 mph - -   Overcast
9:50 AM 50.0 °F 44.6 °F 82% 30.01 in 6.2 mi ENE 4.6 mph - N/A   Mostly Cloudy
10:20 AM 51.8 °F 44.6 °F 76% 30.01 in 6.2 mi ENE 5.8 mph - N/A   Scattered Clouds
10:50 AM 53.6 °F 44.6 °F 72% 30.01 in 6.2 mi East 9.2 mph - N/A   Scattered Clouds
11:20 AM 55.4 °F 44.6 °F 67% 30.01 in 6.2 mi ESE 10.4 mph - N/A   Scattered Clouds
11:50 AM 55.4 °F 42.8 °F 63% 30.01 in 6.2 mi East 57.5 mph - N/A   Partly Cloudy
12:20 PM 57.2 °F 44.6 °F 63% 29.98 in 6.2 mi SE 8.1 mph - N/A   Partly Cloudy
12:50 PM 59 °F 45 °F 49% 29.99 in 19 mi ESE 6.9 mph - -   Mostly Cloudy
12:50 PM 57.2 °F 44.6 °F 63% 29.98 in 6.2 mi ESE 6.9 mph - N/A   Scattered Clouds
1:20 PM 59.0 °F 44.6 °F 59% 29.98 in 6.2 mi East 9.2 mph - N/A   Scattered Clouds
1:50 PM 57.2 °F 44.6 °F 63% 29.98 in 6.2 mi ESE 5.8 mph - N/A   Scattered Clouds
2:20 PM 57.2 °F 44.6 °F 63% 29.98 in 6.2 mi SE 9.2 mph - N/A   Scattered Clouds
2:50 PM 57.2 °F 44.6 °F 63% 29.95 in 6.2 mi SE 6.9 mph - N/A   Scattered Clouds
3:20 PM 57.2 °F 44.6 °F 63% 29.95 in 6.2 mi SE 6.9 mph - N/A   Scattered Clouds
3:50 PM 57 °F 44 °F 53% 29.95 in 16 mi SSE 6.9 mph - -   Overcast
3:50 PM 57.2 °F 44.6 °F 63% 29.95 in 6.2 mi SSE 6.9 mph - N/A   Mostly Cloudy
4:20 PM 57.2 °F 44.6 °F 63% 29.95 in 6.2 mi SE 6.9 mph - N/A   Mostly Cloudy
4:50 PM 55.4 °F 44.6 °F 67% 29.95 in 6.2 mi SE 6.9 mph - N/A   Mostly Cloudy
5:20 PM 55.4 °F 46.4 °F 72% 29.92 in 6.2 mi SE 6.9 mph - N/A   Mostly Cloudy
5:50 PM 55.4 °F 46.4 °F 72% 29.92 in 6.2 mi ESE 6.9 mph - N/A   Mostly Cloudy
6:20 PM 53.6 °F 46.4 °F 77% 29.92 in 6.2 mi SE 5.8 mph - N/A   Mostly Cloudy
6:50 PM 54 °F 46 °F 67% 29.94 in 12 mi SSE 6.9 mph - -   Overcast
6:50 PM 53.6 °F 46.4 °F 77% 29.92 in 6.2 mi SSE 6.9 mph - N/A   Mostly Cloudy
7:20 PM 53.6 °F 46.4 °F 77% 29.92 in 6.2 mi SE 5.8 mph - N/A   Mostly Cloudy
7:50 PM 53.6 °F 44.6 °F 72% 29.92 in 6.2 mi SE 6.9 mph - N/A   Overcast
8:20 PM 53.6 °F 44.6 °F 72% 29.92 in 6.2 mi ESE 8.1 mph - N/A   Mostly Cloudy
8:50 PM 51.8 °F 42.8 °F 71% 29.92 in 6.2 mi ESE 8.1 mph - N/A   Overcast
9:50 PM 52 °F 44 °F 66% 29.91 in 14 mi East 4.6 mph - -   Overcast